Date String (YYYY-MM-DD hh:mm:ss) UTC,Instrument flags,absolute air pressure of the measurement (hPa),sample flow rate (lpm),inlet stack bypass flow (lpm),air temperature of the measurement (°C),ambient temperature measured by the external sensor (°C),aerosol sample conditioner tube jacket temperature (°C),OPC LED temperature (°C),internal box temperature (°C),relative humidity of the measurement (%),span deviation,mass concentration of particles derived from Lorenz-Mie calculation of OPC scattering (μg/m³),mass concentration of particles derived from Lorenz-Mie calculation of OPC scattering (μg/m³),mass concentration of particles derived from Lorenz-Mie calculation of OPC scattering (μg/m³)
DateTimeUTC,F1_M11,P_M11,Q1_M11,Q2_M11,T1_M11,T2_M11,T3_M11,T4_M11,T5_M11,U1_M11,ZSPAN_M11,X2_M11,X0_M11,X1_M11
2024-01-28 06:00:00,SystemResetWarning,0836.1,5.00,000.00,022.3,021.0,000.0,030.8,023.7,09.8,0000.0,0002.84,0005.43,0002.37
2024-01-28 06:01:00,SystemResetWarning,0836.1,5.00,000.00,022.3,021.0,000.0,030.7,023.6,09.8,0000.0,0002.81,0006.44,0002.36
2024-01-28 06:02:00,SystemResetWarning,0836.1,5.00,000.00,022.3,021.0,000.0,030.7,023.6,09.8,0000.0,0002.80,0006.39,0002.37
2024-01-28 06:03:00,SystemResetWarning,0836.1,5.00,000.00,022.3,021.0,000.0,030.7,023.6,09.8,0000.0,0002.77,0006.29,0002.37
2024-01-28 06:04:00,SystemResetWarning,0836.1,5.01,000.00,022.3,021.0,000.0,030.7,023.7,09.8,0000.0,0002.80,0006.40,0002.38
2024-01-28 06:05:00,SystemResetWarning,0836.1,5.01,000.00,022.3,021.0,000.0,030.7,023.6,09.8,0000.0,0002.77,0006.31,0002.38
2024-01-28 06:06:00,SystemResetWarning,0836.1,5.00,000.00,022.3,021.0,000.0,030.7,023.6,09.8,0000.0,0002.72,0006.18,0002.36
2024-01-28 06:07:00,SystemResetWarning,0836.1,5.00,000.00,022.3,020.9,000.0,030.7,023.6,09.8,0000.0,0002.70,0006.02,0002.35
2024-01-28 06:08:00,SystemResetWarning,0836.0,4.99,000.00,022.3,020.9,000.0,030.7,023.6,09.8,0000.0,0002.66,0005.88,0002.34
2024-01-28 06:09:00,SystemResetWarning,0836.0,4.99,000.00,022.2,020.9,000.0,030.7,023.6,09.8,0000.0,0002.62,0005.11,0002.32
2024-01-28 06:10:00,SystemResetWarning,0835.9,4.99,000.00,022.2,020.9,000.0,030.6,023.6,09.9,0000.0,0002.64,0004.92,0002.31
2024-01-28 06:11:00,SystemResetWarning,0836.0,4.99,000.00,022.2,020.9,000.0,030.6,023.5,09.9,0000.0,0002.62,0004.90,0002.29
2024-01-28 06:12:00,SystemResetWarning,0835.9,5.01,000.00,022.2,020.9,000.0,030.6,023.5,09.8,0000.0,0002.60,0003.73,0002.26
2024-01-28 06:13:00,SystemResetWarning,0835.9,5.02,000.00,022.2,020.9,000.0,030.6,023.5,09.8,0000.0,0002.56,0003.77,0002.23
2024-01-28 06:14:00,SystemResetWarning,0835.9,5.00,000.00,022.2,020.9,000.0,030.6,023.5,09.8,0000.0,0002.53,0003.79,0002.20
2024-01-28 06:15:00,SystemResetWarning,0835.9,4.99,000.00,022.2,020.9,000.0,030.6,023.5,09.8,0000.0,0002.46,0003.63,0002.17
2024-01-28 06:16:00,SystemResetWarning,0835.9,5.00,000.00,022.1,020.9,000.0,030.6,023.5,09.8,0000.0,0002.45,0003.71,0002.12
2024-01-28 06:17:00,SystemResetWarning,0835.9,4.99,000.00,022.1,020.9,000.0,030.5,023.5,09.8,0000.0,0002.43,0003.80,0002.10
2024-01-28 06:18:00,SystemResetWarning,0836.0,5.00,000.00,022.1,020.9,000.0,030.5,023.5,09.8,0000.0,0002.40,0003.77,0002.07
2024-01-28 06:19:00,SystemResetWarning,0836.0,5.01,000.00,022.1,020.9,000.0,030.5,023.5,09.7,0000.0,0002.35,0003.71,0002.02
2024-01-28 06:20:00,SystemResetWarning,0835.9,5.00,000.00,022.1,020.9,000.0,030.5,023.5,09.6,0000.0,0002.31,0003.62,0001.99
2024-01-28 06:21:00,SystemResetWarning,0836.0,5.00,000.00,022.1,020.9,000.0,030.5,023.5,09.5,0000.0,0002.28,0003.51,0001.95
2024-01-28 06:22:00,SystemResetWarning,0836.0,4.99,000.00,022.1,020.9,000.0,030.5,023.5,09.5,0000.0,0002.26,0003.27,0001.92
2024-01-28 06:23:00,SystemResetWarning,0835.9,5.00,000.00,022.1,020.9,000.0,030.5,023.5,09.6,0000.0,0002.20,0003.51,0001.89
2024-01-28 06:24:00,SystemResetWarning,0835.9,5.00,000.00,022.1,020.9,000.0,030.5,023.5,09.7,0000.0,0002.16,0003.71,0001.87
2024-01-28 06:25:00,SystemResetWarning,0835.9,5.00,000.00,022.1,020.9,000.0,030.5,023.5,09.8,0000.0,0002.13,0003.54,0001.86
2024-01-28 06:26:00,SystemResetWarning,0835.9,5.02,000.00,022.1,020.8,000.0,030.5,023.4,09.8,0000.0,0002.11,0003.59,0001.84
2024-01-28 06:27:00,SystemResetWarning,0835.9,5.01,000.00,022.1,020.8,000.0,030.5,023.5,09.9,0000.0,0002.07,0004.54,0001.81
2024-01-28 06:28:00,SystemResetWarning,0835.9,5.00,000.00,022.1,020.8,000.0,030.5,023.4,09.9,0000.0,0002.03,0004.42,0001.79
2024-01-28 06:29:00,SystemResetWarning,0835.9,4.99,000.00,022.1,020.8,000.0,030.5,023.4,10.0,0000.0,0002.03,0004.42,0001.77
2024-01-28 06:30:00,SystemResetWarning,0835.9,4.99,000.00,022.1,020.7,000.0,030.4,023.4,09.9,0000.0,0001.99,0004.39,0001.75
2024-01-28 06:31:00,SystemResetWarning,0835.9,5.00,000.00,022.1,020.7,000.0,030.4,023.4,09.9,0000.0,0001.99,0004.40,0001.74
2024-01-28 06:32:00,SystemResetWarning,0835.9,5.00,000.00,022.0,020.7,000.0,030.4,023.4,09.9,0000.0,0001.98,0004.41,0001.74
2024-01-28 06:33:00,SystemResetWarning,0835.9,5.00,000.00,022.0,020.7,000.0,030.4,023.4,09.9,0000.0,0001.97,0004.45,0001.73
2024-01-28 06:34:00,SystemResetWarning,0835.9,5.00,000.00,022.0,020.7,000.0,030.4,023.4,09.8,0000.0,0001.99,0004.34,0001.73
2024-01-28 06:35:00,SystemResetWarning,0835.9,5.00,000.00,022.0,020.7,000.0,030.4,023.4,09.9,0000.0,0002.00,0003.89,0001.72
2024-01-28 06:36:00,SystemResetWarning,0835.9,5.00,000.00,022.0,020.7,000.0,030.4,023.4,09.9,0000.0,0002.00,0003.92,0001.71
2024-01-28 06:37:00,SystemResetWarning,0835.9,5.00,000.00,022.0,020.8,000.0,030.4,023.3,09.9,0000.0,0002.02,0004.01,0001.70
2024-01-28 06:38:00,SystemResetWarning,0835.9,5.00,000.00,022.0,020.7,000.0,030.4,023.3,09.8,0000.0,0002.07,0003.28,0001.70
2024-01-28 06:39:00,SystemResetWarning,0835.9,5.00,000.00,022.0,020.7,000.0,030.4,023.3,09.7,0000.0,0002.09,0003.03,0001.70
2024-01-28 06:40:00,SystemResetWarning,0835.9,5.00,000.00,022.0,020.7,000.0,030.4,023.3,09.4,0000.0,0002.06,0003.25,0001.69
2024-01-28 06:41:00,SystemResetWarning,0835.9,5.00,000.00,022.0,020.7,000.0,030.4,023.3,09.7,0000.0,0002.04,0003.15,0001.70
2024-01-28 06:42:00,SystemResetWarning,0835.9,5.01,000.00,022.0,020.7,000.0,030.4,023.3,09.7,0000.0,0002.04,0003.16,0001.69
2024-01-28 06:43:00,SystemResetWarning,0835.9,5.00,000.00,022.0,020.7,000.0,030.3,023.3,09.7,0000.0,0002.03,0003.15,0001.67
2024-01-28 06:44:00,SystemResetWarning,0835.9,5.00,000.00,022.0,020.7,000.0,030.3,023.3,09.7,0000.0,0002.01,0003.17,0001.65
2024-01-28 06:45:00,SystemResetWarning,0835.9,5.00,000.00,021.9,020.7,000.0,030.3,023.3,09.7,0000.0,0001.97,0003.08,0001.64
2024-01-28 06:46:00,SystemResetWarning,0835.9,5.01,000.00,021.9,020.7,000.0,030.3,023.3,09.6,0000.0,0001.92,0002.95,0001.62
2024-01-28 06:47:00,SystemResetWarning,0835.9,5.00,000.00,021.9,020.7,000.0,030.3,023.3,09.6,0000.0,0001.89,0003.92,0001.61
2024-01-28 06:48:00,SystemResetWarning,0835.9,5.00,000.00,021.9,020.7,000.0,030.3,023.3,09.6,0000.0,0001.86,0004.26,0001.59
2024-01-28 06:49:00,SystemResetWarning,0835.9,5.00,000.00,021.9,020.7,000.0,030.3,023.3,09.6,0000.0,0001.80,0004.24,0001.58
2024-01-28 06:50:00,SystemResetWarning,0835.9,5.00,000.00,021.9,020.7,000.0,030.3,023.3,09.6,0000.0,0001.79,0004.26,0001.57
2024-01-28 06:51:00,SystemResetWarning,0835.9,5.00,000.00,021.9,020.7,000.0,030.3,023.3,09.5,0000.0,0001.82,0004.07,0001.56
2024-01-28 06:52:00,SystemResetWarning,0835.8,5.00,000.00,021.9,020.7,000.0,030.3,023.3,09.5,0000.0,0001.84,0004.14,0001.54
2024-01-28 06:53:00,SystemResetWarning,0835.8,5.00,000.00,021.9,020.7,000.0,030.3,023.3,09.5,0000.0,0001.82,0004.11,0001.52
2024-01-28 06:54:00,SystemResetWarning,0835.8,5.01,000.00,021.9,020.7,000.0,030.3,023.3,09.5,0000.0,0001.79,0004.11,0001.49
2024-01-28 06:55:00,SystemResetWarning,0835.8,5.00,000.00,021.9,020.7,000.0,030.3,023.3,09.5,0000.0,0001.76,0003.99,0001.47
2024-01-28 06:56:00,SystemResetWarning,0835.8,5.00,000.00,021.9,020.7,000.0,030.3,023.3,09.5,0000.0,0001.74,0004.03,0001.44
2024-01-28 06:57:00,SystemResetWarning,0835.8,5.00,000.00,021.9,020.7,000.0,030.2,023.2,09.4,0000.0,0001.74,0004.03,0001.43
2024-01-28 06:58:00,SystemResetWarning,0835.8,5.00,000.00,021.9,020.7,000.0,030.2,023.3,09.4,0000.0,0001.72,0002.98,0001.41
2024-01-28 06:59:00,SystemResetWarning,0835.8,5.00,000.00,021.9,020.7,000.0,030.2,023.3,09.4,0000.0,0001.72,0002.60,0001.41
